PBO Station Position Time Series. Reference Frame : NAM14
Format Version,1.1.1
4-character ID,LKHG
Station name,Lake_Henshaw_GPS
Begin Date, 2015-06-12
End Date, 2023-06-26
Release Date, 2023-06-27
Reference position, 33.2360068835 North Latitude, -116.7587655672 East Longitude, 823.28194 meters elevation,
Date, North (mm), East (mm), Vertical (mm), North Std. Deviation (mm), East Std. Deviation (mm),              Vertical Std. Deviation (mm), Quality,
2015-06-12,0.00, 0.00, 0.00, 1.91, 1.66, 7.59, repro,
2015-06-13,0.18, 1.55, 2.66, 1.99, 1.69, 7.79, repro,
2015-06-14,-0.24, 2.26, -4.45, 1.91, 1.66, 7.64, repro,
2015-06-15,0.17, -0.34, -0.43, 1.91, 1.69, 7.78, repro,
2015-06-16,1.73, -0.84, -3.85, 1.91, 1.67, 7.62, repro,
2015-06-17,0.61, 0.85, 3.52, 1.94, 1.72, 7.80, repro,
2015-06-18,0.16, 2.02, -5.80, 1.95, 1.75, 7.99, repro,
2015-06-19,0.41, 1.60, 0.12, 1.94, 1.74, 7.91, repro,
2015-06-20,1.17, 0.55, 2.31, 1.91, 1.67, 7.64, repro,
2015-06-21,2.99, -0.16, 2.97, 1.93, 1.68, 7.69, repro,
2015-06-22,1.49, 0.48, 9.56, 1.90, 1.67, 7.59, repro,
2015-06-23,2.44, 2.39, 3.05, 2.01, 1.71, 7.89, repro,
2015-06-24,-0.40, 1.18, -2.75, 1.97, 1.73, 7.86, repro,
2015-06-25,1.19, 2.38, 1.50, 1.93, 1.69, 7.66, repro,
2015-06-26,0.56, -1.23, 7.03, 1.96, 1.68, 7.82, repro,
2015-06-27,1.34, 0.36, 0.40, 1.89, 1.64, 7.46, repro,
2015-06-28,-0.03, -0.28, 0.92, 1.89, 1.64, 7.51, repro,
2015-06-29,1.27, 1.46, -5.16, 1.91, 1.67, 7.68, repro,
2015-06-30,-0.64, 2.11, 3.41, 2.00, 1.70, 7.97, repro,
2015-07-01,0.70, 0.91, 7.02, 1.97, 1.69, 7.92, repro,
2015-07-02,0.42, 0.47, 8.67, 1.93, 1.66, 7.75, repro,
2015-07-03,0.40, 0.02, 6.78, 1.89, 1.66, 7.54, repro,
2015-07-04,1.87, 0.87, 3.49, 1.90, 1.67, 7.64, repro,
2015-07-05,0.15, 1.39, 4.47, 1.93, 1.69, 7.74, repro,
2015-07-06,1.39, 0.96, -4.56, 1.91, 1.67, 7.61, repro,
2015-07-07,-0.10, -2.89, -1.74, 1.91, 1.67, 7.63, repro,
2015-07-08,2.88, -0.79, -7.06, 1.92, 1.70, 7.77, repro,
2015-07-09,1.20, -0.40, 1.92, 1.92, 1.69, 7.74, repro,
2015-07-10,2.75, 1.42, 6.10, 1.92, 1.68, 7.68, repro,
2015-07-11,3.04, 0.74, -4.93, 1.94, 1.70, 7.71, repro,
2015-07-12,1.86, 1.67, -2.75, 1.90, 1.65, 7.55, repro,
2015-07-13,1.81, -0.49, 0.31, 1.89, 1.66, 7.54, repro,
2015-07-14,3.65, 1.13, -5.35, 1.92, 1.70, 7.73, repro,
2015-07-15,0.85, 0.86, -1.37, 1.98, 1.70, 7.72, repro,
2015-07-16,0.86, 2.91, -3.60, 1.96, 1.75, 7.77, repro,
2015-07-17,-0.83, 0.23, 6.98, 1.90, 1.64, 7.46, repro,
2015-07-18,-0.98, 2.88, 12.20, 1.92, 1.67, 7.71, repro,
2015-07-19,0.07, 2.85, -1.19, 2.05, 1.79, 8.29, repro,
2015-07-20,3.53, 2.16, -0.89, 1.96, 1.74, 7.86, repro,
2015-07-21,1.69, 2.11, 3.84, 1.90, 1.68, 7.62, repro,
2015-07-22,0.16, -0.51, 1.32, 1.91, 1.67, 7.56, repro,
2015-07-23,-0.56, 1.07, 2.83, 1.92, 1.71, 7.78, repro,
2015-07-24,0.12, 1.94, -4.13, 1.90, 1.67, 7.52, repro,
2015-07-25,1.51, 0.90, 3.56, 1.90, 1.67, 7.59, repro,
2015-07-26,-1.13, -1.72, 8.73, 1.92, 1.71, 7.61, repro,
2015-07-27,1.10, 1.34, 1.97, 1.96, 1.70, 7.68, repro,
2015-07-28,1.36, 2.81, 7.65, 1.99, 1.71, 8.02, repro,
2015-07-29,1.21, 5.48, -2.09, 1.98, 1.71, 7.91, repro,
2015-07-30,0.70, 2.52, 14.54, 1.97, 1.69, 7.73, repro,
2015-07-31,-0.78, -0.82, 13.22, 1.90, 1.65, 7.48, repro,
2015-08-01,-0.85, 1.75, 14.14, 1.93, 1.69, 7.70, repro,
2015-08-02,1.66, -0.40, 12.03, 1.90, 1.68, 7.65, repro,
2015-08-03,-0.36, 1.19, 6.45, 1.94, 1.71, 7.83, repro,
2015-08-04,0.04, 2.55, 6.37, 1.92, 1.70, 7.77, repro,
2015-08-05,-0.05, 1.78, 10.40, 1.96, 1.73, 7.93, repro,
2015-08-06,1.26, -0.08, 10.74, 1.95, 1.72, 7.88, repro,
2015-08-07,1.34, 1.50, 11.37, 1.99, 1.78, 8.07, repro,
2015-08-08,2.45, 1.94, 11.93, 1.97, 1.73, 7.85, repro,
2015-08-09,1.19, 2.19, 10.63, 2.02, 1.77, 8.06, repro,
2015-08-10,0.75, 0.92, 4.02, 1.96, 1.77, 7.95, repro,
2015-08-11,2.63, 2.69, 8.11, 1.95, 1.74, 7.92, repro,
2015-08-12,4.40, 0.86, 10.44, 1.93, 1.70, 7.81, repro,
2015-08-13,1.02, 0.53, 9.75, 1.97, 1.75, 8.09, repro,
2015-08-14,0.23, 0.59, 10.11, 1.90, 1.66, 7.64, repro,
2015-08-15,0.38, 1.31, 14.88, 1.89, 1.67, 7.63, repro,
2015-08-16,0.68, 1.82, 14.30, 1.92, 1.69, 7.74, repro,
2015-08-17,1.68, 0.50, 9.95, 1.90, 1.68, 7.61, repro,
2015-08-18,0.33, -0.89, 6.88, 1.91, 1.68, 7.67, repro,
2015-08-19,1.14, 0.44, 8.87, 1.90, 1.67, 7.64, repro,
2015-08-20,0.25, 0.85, 2.72, 1.95, 1.71, 7.80, repro,
2015-08-21,0.90, 1.12, 13.89, 1.96, 1.74, 7.92, repro,
2015-08-22,3.65, 2.10, 6.75, 1.92, 1.69, 7.73, repro,
2015-08-23,2.54, 0.21, 4.52, 1.89, 1.66, 7.56, repro,
2015-08-24,1.65, 2.24, -4.03, 1.91, 1.68, 7.74, repro,
2015-08-25,0.93, 2.35, 12.19, 1.91, 1.70, 7.81, repro,
2015-08-26,1.87, 2.57, -6.28, 1.91, 1.68, 7.75, repro,
2015-08-27,1.50, 2.15, 2.49, 1.91, 1.69, 7.72, repro,
2015-08-28,0.22, 0.77, 4.93, 1.91, 1.67, 7.67, repro,
2015-08-29,1.37, 2.76, 11.27, 1.91, 1.68, 7.72, repro,
2015-08-30,1.58, 1.87, 7.48, 1.92, 1.69, 7.77, repro,
2015-08-31,0.24, -0.10, 10.14, 1.95, 1.73, 7.91, repro,
2015-09-01,1.24, 0.82, 6.53, 1.97, 1.73, 7.96, repro,
2015-09-02,2.80, 1.08, 9.94, 1.97, 1.73, 7.93, repro,
2015-09-03,3.98, 1.50, 7.54, 1.92, 1.70, 7.80, repro,
2015-09-04,-1.36, -3.33, 8.98, 2.34, 2.25, 10.10, repro,
2015-09-05,-1.38, -0.58, -0.01, 1.92, 1.71, 7.88, repro,
2015-09-06,1.85, 2.37, 5.46, 1.92, 1.71, 7.74, repro,
2015-09-07,0.20, 2.94, 7.35, 1.93, 1.72, 7.93, repro,
2015-09-08,3.60, 1.58, -1.77, 2.12, 1.90, 8.63, repro,
2015-09-09,2.20, 4.19, 2.98, 2.01, 1.76, 8.41, repro,
2015-09-10,2.27, 3.50, 0.10, 1.97, 1.76, 8.03, repro,
2015-09-11,2.34, 1.64, 0.97, 2.02, 1.80, 8.13, repro,
2015-09-12,2.84, 2.30, -0.78, 1.97, 1.76, 8.03, repro,
2015-09-13,3.28, 1.70, 9.65, 2.02, 1.81, 8.20, repro,
2015-09-14,2.00, 0.35, 3.92, 2.01, 1.81, 8.13, repro,
2015-09-15,0.92, 0.05, 0.29, 2.04, 1.83, 8.41, repro,
2015-09-16,1.47, 1.89, 8.17, 1.99, 1.80, 8.15, repro,
2015-09-17,3.53, 2.86, 2.37, 1.99, 1.78, 8.05, repro,
2015-09-18,2.87, 2.49, 7.22, 2.00, 1.79, 8.15, repro,
2015-09-19,3.15, -0.27, 5.81, 2.02, 1.83, 8.33, repro,
2015-09-20,1.80, 2.27, 8.07, 2.00, 1.77, 7.97, repro,
2015-09-21,-1.46, 1.15, 11.64, 2.01, 1.79, 8.06, repro,
2015-09-22,0.74, 1.89, 13.82, 1.99, 1.77, 7.99, repro,
2015-09-23,1.78, 3.40, -2.96, 2.02, 1.85, 8.30, repro,
2015-09-24,4.14, 2.59, -22.85, 2.27, 2.25, 9.63, repro,
2015-09-25,2.62, 2.20, 1.99, 2.04, 1.80, 8.25, repro,
2015-09-26,1.17, 1.80, 6.80, 1.99, 1.78, 8.05, repro,
2015-09-27,2.13, 3.07, 14.23, 2.02, 1.80, 8.07, repro,
2015-09-28,-0.55, 0.24, 14.17, 2.06, 1.78, 8.14, repro,
2015-09-29,0.78, -1.04, 9.94, 1.97, 1.81, 8.01, repro,
2015-09-30,1.95, -0.22, 11.93, 2.06, 1.84, 8.38, repro,
2015-10-01,0.42, 1.86, 10.89, 2.07, 1.86, 8.50, repro,
2015-10-02,0.08, 0.98, 7.02, 2.11, 1.90, 8.63, repro,
2015-10-03,-0.16, 1.10, 6.62, 1.99, 1.80, 8.08, repro,
2015-10-04,-0.38, -0.54, 13.54, 1.98, 1.78, 8.01, repro,
2015-10-05,-0.47, -0.34, 3.42, 1.98, 1.80, 8.08, repro,
2015-10-06,1.64, 0.63, 0.21, 1.99, 1.79, 8.11, repro,
2015-10-07,-0.29, 1.97, 6.13, 2.01, 1.78, 8.07, repro,
2015-10-08,2.69, 1.51, -1.35, 1.99, 1.80, 8.07, repro,
2015-10-09,4.56, 2.56, 1.08, 2.00, 1.79, 8.13, repro,
2015-10-10,2.32, 0.60, 8.96, 1.96, 1.76, 7.94, repro,
2015-10-11,1.66, 0.77, 11.53, 1.96, 1.75, 7.92, repro,
2015-10-12,1.51, 2.15, 10.73, 2.00, 1.78, 8.15, repro,
2015-10-13,2.37, 2.75, -7.14, 2.03, 1.82, 8.30, repro,
2015-10-14,2.65, 1.98, 5.47, 2.12, 1.86, 8.61, repro,
2015-10-15,3.42, 2.57, 12.77, 1.99, 1.82, 8.31, repro,
2015-10-16,2.00, 2.05, -1.58, 1.97, 1.82, 8.13, repro,
2015-10-17,2.29, 2.45, 13.68, 1.97, 1.81, 8.09, repro,
2015-10-18,1.17, 1.56, 9.91, 2.08, 1.89, 8.51, repro,
2015-10-19,1.22, -1.08, 6.84, 1.99, 1.79, 7.99, repro,
2015-10-20,1.63, 0.50, 8.02, 1.98, 1.83, 8.06, repro,
2015-10-21,3.29, 4.21, 6.08, 1.99, 1.84, 8.24, repro,
2015-10-22,1.49, 0.95, 1.70, 1.97, 1.82, 8.18, repro,
2015-10-23,2.62, 1.64, 7.14, 1.98, 1.81, 8.08, repro,
2015-10-24,2.07, 1.13, 12.16, 1.98, 1.84, 8.08, repro,
2015-10-25,2.73, 1.12, 15.09, 2.07, 1.92, 8.44, repro,
2015-10-26,2.64, 1.15, 0.80, 1.99, 1.85, 8.18, repro,
2015-10-27,1.28, 0.65, 15.59, 2.01, 1.89, 8.42, repro,
2015-10-28,3.10, 3.45, 9.78, 2.07, 1.91, 8.37, repro,
2015-10-29,2.37, -0.33, 19.75, 2.01, 1.86, 8.19, repro,
2015-10-30,1.75, 1.28, 7.22, 2.02, 1.86, 8.19, repro,
2015-10-31,2.98, 1.42, 12.97, 2.00, 1.86, 8.20, repro,
2015-11-01,1.91, 1.22, 8.90, 2.01, 1.88, 8.25, repro,
2015-11-02,0.67, 0.04, 5.50, 2.03, 1.92, 8.48, repro,
2015-11-03,1.72, 0.31, 32.41, 2.21, 2.03, 9.34, repro,
2015-11-04,1.43, 0.79, 8.25, 2.12, 1.95, 8.93, repro,
2015-11-05,1.50, 2.22, 12.50, 2.13, 1.97, 8.82, repro,
2015-11-06,3.31, 1.46, -1.25, 2.10, 1.91, 8.59, repro,
2015-11-07,3.09, 1.45, 8.20, 2.13, 1.92, 8.75, repro,
2015-11-08,2.95, 0.27, 12.70, 2.09, 1.89, 8.53, repro,
2015-11-09,2.44, -0.95, 14.27, 2.22, 2.02, 9.06, repro,
2015-11-10,4.33, 2.14, -2.16, 2.25, 2.03, 9.26, repro,
2015-11-11,3.58, 1.34, 8.31, 2.24, 2.00, 9.00, repro,
2015-11-12,3.43, 1.06, 11.92, 2.17, 1.98, 8.81, repro,
2015-11-13,3.30, 1.39, 7.24, 2.25, 2.07, 9.10, repro,
2015-11-14,0.06, 1.64, 10.05, 2.21, 1.96, 8.87, repro,
2015-11-15,0.59, -0.62, 18.54, 2.21, 2.00, 9.01, repro,
2015-11-16,2.42, 2.42, 15.21, 2.24, 2.07, 9.34, repro,
2015-11-17,3.99, 1.96, 1.10, 2.22, 2.03, 9.19, repro,
2015-11-18,2.20, 1.28, 10.75, 2.17, 1.96, 8.86, repro,
2015-11-19,3.24, 1.28, 10.33, 1.89, 1.71, 7.69, repro,
2015-11-20,3.00, 0.98, 10.53, 1.87, 1.69, 7.55, repro,
2015-11-21,2.75, 1.71, 6.52, 1.89, 1.71, 7.68, repro,
2015-11-22,3.83, 1.92, 11.67, 1.86, 1.70, 7.50, repro,
2015-11-23,3.52, 2.27, 6.63, 1.87, 1.70, 7.59, repro,
2015-11-24,1.78, -0.95, 12.35, 1.89, 1.70, 7.71, repro,
2015-11-25,1.47, 2.96, 8.95, 1.89, 1.71, 7.70, repro,
2015-11-26,1.15, 0.73, 7.63, 1.86, 1.68, 7.51, repro,
2015-11-27,3.33, 0.98, -4.40, 1.91, 1.72, 7.77, repro,
2015-11-28,3.67, 1.99, 1.97, 1.87, 1.70, 7.65, repro,
2015-11-29,2.99, 1.61, 3.94, 1.87, 1.68, 7.58, repro,
2015-11-30,3.57, 1.27, 6.82, 1.86, 1.68, 7.56, repro,
2015-12-01,3.12, 1.32, 3.11, 1.86, 1.69, 7.52, repro,
2015-12-02,3.19, 1.93, 2.36, 1.86, 1.70, 7.58, repro,
2015-12-03,2.60, 2.54, -0.41, 1.87, 1.70, 7.63, repro,
2015-12-04,3.97, 1.36, 1.60, 1.89, 1.72, 7.75, repro,
2015-12-05,3.33, 2.69, -0.20, 1.87, 1.69, 7.60, repro,
2015-12-06,2.43, 1.48, 6.22, 1.85, 1.68, 7.59, repro,
2015-12-07,2.79, 1.75, 1.28, 1.87, 1.74, 7.79, repro,
2015-12-08,2.81, 2.49, -1.80, 1.86, 1.72, 7.66, repro,
2015-12-09,3.47, 1.62, 7.69, 1.87, 1.71, 7.64, repro,
2015-12-10,3.67, 0.40, 3.30, 1.91, 1.79, 7.90, repro,
2015-12-11,0.20, 1.69, 3.29, 1.92, 1.79, 7.96, repro,
2015-12-12,0.93, -0.26, 16.74, 1.88, 1.75, 7.76, repro,
2015-12-13,2.74, 0.48, 10.29, 1.86, 1.74, 7.72, repro,
2015-12-14,1.54, 3.78, 2.93, 1.91, 1.74, 7.87, repro,
2015-12-15,3.99, 2.80, 7.15, 1.86, 1.66, 7.48, repro,
2015-12-16,2.88, 3.06, 4.48, 1.88, 1.67, 7.58, repro,
2015-12-17,1.64, 3.26, 7.30, 1.93, 1.69, 7.80, repro,
2015-12-18,3.20, 3.15, 3.79, 1.92, 1.69, 7.73, repro,
2015-12-19,0.94, 1.91, 4.92, 1.84, 1.64, 7.41, repro,
2015-12-20,1.03, 3.53, -1.05, 1.92, 1.74, 7.93, repro,
2015-12-21,3.20, 1.50, 2.01, 1.87, 1.67, 7.59, repro,
2015-12-22,2.04, -1.43, 15.25, 1.92, 1.75, 8.03, repro,
2015-12-23,1.15, -1.14, 12.27, 2.19, 2.09, 9.31, repro,
2015-12-24,1.57, -0.03, 6.56, 1.88, 1.70, 7.69, repro,
2015-12-25,1.41, 3.67, -4.66, 1.88, 1.69, 7.66, repro,
2015-12-26,4.08, 5.18, -1.83, 2.24, 2.19, 9.15, repro,
2015-12-27,0.58, 2.93, 3.39, 1.85, 1.65, 7.49, repro,
2015-12-28,-0.04, 2.29, 6.73, 1.87, 1.66, 7.52, repro,
2015-12-29,0.05, 1.92, 6.32, 1.87, 1.68, 7.58, repro,
2015-12-30,2.15, 3.06, 0.57, 1.86, 1.68, 7.55, repro,
2015-12-31,3.09, 4.97, 0.45, 1.85, 1.65, 7.46, repro,
2016-01-01,1.53, 2.23, 5.65, 1.86, 1.66, 7.47, repro,
2016-01-02,2.05, 3.77, 5.24, 1.93, 1.73, 7.80, repro,
2016-01-03,0.92, 2.32, 5.92, 1.87, 1.67, 7.58, repro,
2016-01-04,1.14, 2.44, 6.94, 1.89, 1.68, 7.66, repro,
2016-01-05,0.28, 0.30, 15.19, 1.90, 1.71, 7.70, repro,
2016-01-06,-1.75, 3.09, 0.39, 1.91, 1.70, 7.81, repro,
2016-01-07,-1.96, 1.31, 12.60, 1.92, 1.72, 7.82, repro,
2016-01-08,-1.49, 1.69, 3.38, 1.95, 1.78, 7.98, repro,
2016-01-09,-1.02, 2.51, 1.95, 1.91, 1.75, 7.79, repro,
2016-01-10,-1.83, 1.78, 5.76, 1.90, 1.71, 7.75, repro,
2016-01-11,-0.13, 2.74, 0.15, 1.90, 1.70, 7.71, repro,
2016-01-12,-1.13, 1.19, 4.55, 1.85, 1.67, 7.46, repro,
2016-01-13,-0.69, 0.55, 8.73, 1.84, 1.67, 7.44, repro,
2016-01-14,-0.62, 1.10, 1.39, 1.87, 1.68, 7.56, repro,
2016-01-15,-0.72, -0.82, 0.51, 2.02, 1.86, 8.14, repro,
2016-01-16,-1.75, 0.40, -0.78, 1.90, 1.72, 7.75, repro,
2016-01-17,-0.31, 0.06, 6.29, 1.87, 1.70, 7.52, repro,
2016-01-18,-2.23, -1.03, 10.10, 1.88, 1.72, 7.61, repro,
2016-01-19,-1.93, -1.11, 4.50, 1.87, 1.68, 7.59, repro,
2016-01-20,-0.42, -0.92, 2.62, 1.90, 1.71, 7.74, repro,
2016-01-21,-0.91, 0.75, 7.08, 1.88, 1.68, 7.63, repro,
2016-01-22,-0.97, -0.79, 4.19, 1.86, 1.67, 7.49, repro,
2016-01-23,-1.67, -1.62, 7.30, 1.85, 1.65, 7.41, repro,
2016-01-24,-3.10, -1.53, 7.57, 1.87, 1.68, 7.53, repro,
2016-01-25,-0.70, -1.18, 8.07, 1.89, 1.68, 7.66, repro,
2016-01-26,-0.62, 0.12, 4.88, 1.89, 1.70, 7.69, repro,
2016-01-27,-0.88, -1.94, 3.29, 1.88, 1.66, 7.58, repro,
2016-01-28,-0.43, -2.40, 5.71, 1.89, 1.68, 7.62, repro,
2016-01-29,-2.43, -1.14, 12.09, 1.92, 1.69, 7.77, repro,
2016-01-30,-0.87, -2.61, 15.47, 1.90, 1.70, 7.68, repro,
2016-01-31,-1.33, -1.26, 0.77, 1.97, 1.73, 7.94, repro,
2016-02-01,-2.76, -1.20, 16.24, 1.93, 1.71, 7.85, repro,
2016-02-02,-2.28, -1.73, 8.24, 1.91, 1.71, 7.73, repro,
2016-02-03,-1.31, -1.02, 8.39, 1.89, 1.70, 7.73, repro,
2016-02-04,-3.09, -2.03, 10.23, 1.88, 1.68, 7.56, repro,
2016-02-05,-1.78, -1.06, 3.54, 1.88, 1.66, 7.51, repro,
2016-02-06,-1.34, 0.28, 7.49, 1.88, 1.64, 7.43, repro,
2016-02-07,-1.69, -1.21, 4.81, 1.89, 1.66, 7.58, repro,
2016-02-08,0.10, 0.24, 1.18, 1.89, 1.65, 7.53, repro,
2016-02-09,-0.02, -0.10, 7.60, 1.86, 1.65, 7.43, repro,
2016-02-10,-1.90, -1.18, 5.04, 1.88, 1.65, 7.46, repro,
2016-02-11,-1.41, -1.29, 3.37, 1.88, 1.63, 7.40, repro,
2016-02-12,-1.23, -0.29, 3.24, 1.90, 1.67, 7.56, repro,
2016-02-13,-1.00, -2.01, 2.88, 1.95, 1.66, 7.69, repro,
2016-02-14,-1.79, -0.72, 3.40, 1.94, 1.72, 7.77, repro,
2016-02-15,-2.56, -1.61, 8.44, 1.88, 1.66, 7.55, repro,
2016-02-16,-2.32, -2.51, 4.36, 1.91, 1.69, 7.61, repro,
2016-02-17,-3.27, -2.94, 10.76, 1.92, 1.67, 7.56, repro,
2016-02-18,-1.09, -2.17, 18.83, 1.91, 1.66, 7.59, repro,
2016-02-19,-0.15, -1.95, 13.91, 1.94, 1.69, 7.69, repro,
2016-02-20,-1.44, -0.80, 7.60, 2.24, 2.15, 9.43, repro,
2016-02-21,-2.10, -1.14, 3.11, 1.90, 1.66, 7.58, repro,
2016-02-22,-3.28, -2.84, 2.04, 1.91, 1.66, 7.64, repro,
2016-02-23,-1.35, -1.54, 4.62, 1.91, 1.66, 7.65, repro,
2016-02-24,-1.42, -1.54, 3.31, 1.95, 1.67, 7.64, repro,
2016-02-25,-1.35, -0.88, 2.77, 1.89, 1.66, 7.56, repro,
2016-02-26,-2.41, -1.39, 5.65, 1.92, 1.70, 7.81, repro,
2016-02-27,-1.48, -1.63, 5.75, 1.89, 1.65, 7.54, repro,
2016-02-28,-0.96, -1.07, 2.95, 1.91, 1.68, 7.61, repro,
2016-02-29,-0.46, -1.99, 7.56, 1.91, 1.70, 7.67, repro,
2016-03-01,-0.96, -2.23, 8.09, 1.97, 1.71, 7.74, repro,
2016-03-02,-1.76, -1.75, 3.29, 1.91, 1.68, 7.64, repro,
2016-03-03,-2.36, -1.57, 3.77, 1.91, 1.67, 7.58, repro,
2016-03-04,-2.49, -1.73, 3.81, 1.94, 1.74, 7.80, repro,
2016-03-05,-1.48, -2.21, 1.96, 1.91, 1.66, 7.52, repro,
2016-03-06,-2.12, -1.47, 7.42, 1.94, 1.70, 7.76, repro,
2016-03-07,-4.19, -4.21, 6.14, 1.94, 1.73, 7.72, repro,
2016-03-08,-1.66, -2.25, 11.67, 2.00, 1.78, 7.97, repro,
2016-03-09,-2.23, -1.38, 0.80, 2.29, 2.18, 9.50, repro,
2016-03-10,-1.07, -0.93, 6.94, 1.87, 1.65, 7.32, repro,
2016-03-11,-2.43, -0.46, 1.36, 1.88, 1.65, 7.38, repro,
2016-03-12,-1.99, -2.09, 8.19, 1.88, 1.67, 7.43, repro,
2016-03-13,-0.56, -1.61, 9.08, 1.87, 1.65, 7.31, repro,
2016-03-14,-2.03, -2.79, 13.33, 1.88, 1.70, 7.36, repro,
2016-03-15,-3.19, -0.09, 9.43, 1.92, 1.71, 7.43, repro,
2016-03-16,-2.92, -1.48, 10.20, 1.92, 1.75, 7.52, repro,
2016-03-17,-2.62, -0.57, 9.50, 1.91, 1.71, 7.49, repro,
2016-03-18,-2.23, -3.03, 11.75, 1.95, 1.72, 7.54, repro,
2016-03-19,-1.65, -2.87, 5.69, 1.91, 1.68, 7.46, repro,
2016-03-20,-3.63, -1.55, 7.68, 1.88, 1.65, 7.34, repro,
2016-03-21,-0.56, -0.64, 3.31, 1.86, 1.65, 7.29, repro,
2016-03-22,-6.72, -3.91, 5.88, 1.90, 1.67, 7.45, repro,
2016-03-23,-3.16, -3.85, 14.01, 1.84, 1.63, 7.18, repro,
2016-03-24,-1.70, -1.51, 6.37, 1.85, 1.65, 7.26, repro,
2016-03-25,-1.72, -1.71, 7.92, 1.85, 1.65, 7.24, repro,
2016-03-26,-3.11, -1.99, 7.03, 1.86, 1.66, 7.26, repro,
2016-03-27,-2.93, -3.05, 10.22, 1.87, 1.66, 7.26, repro,
2016-03-28,-4.88, -4.23, 9.78, 1.86, 1.65, 7.36, repro,
2016-03-29,-4.05, 1.75, 8.40, 1.92, 1.68, 7.53, repro,
2016-03-30,-3.74, -1.52, 10.41, 1.87, 1.67, 7.39, repro,
2016-03-31,-4.32, -1.07, 12.95, 1.86, 1.67, 7.30, repro,
2016-04-01,-3.39, -0.92, 3.79, 1.89, 1.68, 7.39, repro,
2016-04-02,-3.34, -0.27, 10.77, 1.88, 1.67, 7.43, repro,
2016-04-03,-3.10, -1.53, 14.77, 1.86, 1.67, 7.37, repro,
2016-04-04,-3.26, -1.99, 15.61, 1.87, 1.68, 7.44, repro,
2016-04-05,-1.63, -2.01, 8.07, 1.88, 1.71, 7.51, repro,
2016-04-06,-2.43, -2.53, 6.50, 1.90, 1.71, 7.50, repro,
2016-04-07,-1.92, -2.80, 15.43, 1.90, 1.72, 7.57, repro,
2016-04-08,-3.53, -2.82, 11.28, 1.99, 1.77, 7.73, repro,
2016-04-09,-4.43, -3.84, 9.67, 1.94, 1.71, 7.52, repro,
2016-04-10,-4.65, -3.73, 14.88, 1.89, 1.69, 7.53, repro,
2016-04-11,-2.05, -2.55, 11.01, 1.89, 1.71, 7.55, repro,
2016-04-12,-3.02, -3.30, 13.81, 1.92, 1.75, 7.63, repro,
2016-04-13,-3.41, -3.10, 15.59, 1.89, 1.70, 7.54, repro,
2016-04-14,-2.19, -4.11, 18.42, 1.88, 1.69, 7.44, repro,
2016-04-15,-0.88, -6.36, 16.52, 1.91, 1.69, 7.60, repro,
2016-04-16,-4.95, -3.63, 16.85, 1.94, 1.74, 7.64, repro,
2016-04-17,-2.05, -1.85, 12.96, 1.89, 1.70, 7.55, repro,
2016-04-18,-1.49, -2.76, 11.58, 1.92, 1.72, 7.50, repro,
2016-04-19,-1.52, -3.20, 18.49, 1.90, 1.69, 7.57, repro,
2016-04-20,-2.80, -3.57, 17.56, 1.91, 1.69, 7.59, repro,
2016-04-21,-2.70, -3.94, 4.51, 1.89, 1.69, 7.54, repro,
2016-04-22,-3.01, -4.09, 17.02, 1.89, 1.70, 7.58, repro,
2016-04-23,-2.91, -4.77, 12.17, 1.90, 1.71, 7.60, repro,
2016-04-24,-1.84, -4.73, 15.89, 1.88, 1.68, 7.47, repro,
2016-04-25,-4.55, -4.03, 7.31, 1.91, 1.72, 7.46, repro,
2016-04-26,-1.06, -2.79, 11.64, 1.88, 1.70, 7.53, repro,
2016-04-27,-3.15, -3.30, 18.02, 1.91, 1.69, 7.55, repro,
2016-04-28,-3.07, -4.00, 9.32, 1.91, 1.75, 7.68, repro,
2016-04-29,-1.58, -5.66, 11.21, 1.87, 1.67, 7.40, repro,
2016-04-30,-2.13, -6.05, 14.42, 1.87, 1.68, 7.41, repro,
2016-05-01,-1.86, -4.55, 6.42, 1.87, 1.69, 7.49, repro,
2016-05-02,-2.57, -3.13, 10.20, 1.93, 1.72, 7.79, repro,
2016-05-03,-2.41, -3.22, 11.64, 1.91, 1.70, 7.60, repro,
2016-05-04,-3.75, -3.78, 8.32, 1.96, 1.73, 7.69, repro,
2016-05-05,-2.13, -4.04, 8.08, 2.04, 1.75, 8.13, repro,
2016-05-06,-3.84, -6.29, 16.80, 1.99, 1.73, 7.88, repro,
2016-05-07,-4.36, -7.25, 21.15, 1.98, 1.76, 7.70, repro,
2016-05-08,-2.64, -4.53, 20.04, 1.93, 1.73, 7.58, repro,
2016-05-09,-3.14, -3.92, 16.52, 1.87, 1.68, 7.37, repro,
2016-05-10,-1.68, -5.64, 17.05, 1.91, 1.70, 7.48, repro,
2016-05-11,-2.54, -4.67, 12.51, 1.89, 1.66, 7.37, repro,
2016-05-12,-2.19, -3.40, 10.46, 1.88, 1.67, 7.35, repro,
2016-05-13,-4.57, -5.46, 20.01, 1.89, 1.69, 7.49, repro,
2016-05-14,-3.67, -4.83, 21.67, 1.88, 1.69, 7.49, repro,
2016-05-15,-2.29, -5.09, 23.55, 1.90, 1.68, 7.47, repro,
2016-05-16,-3.00, -3.70, 17.30, 1.88, 1.66, 7.36, repro,
2016-05-17,-3.63, -3.45, 21.90, 1.86, 1.66, 7.34, repro,
2016-05-18,-0.86, -2.35, 1.81, 1.88, 1.67, 7.45, repro,
2016-05-19,-3.19, -4.51, 18.80, 1.91, 1.69, 7.53, repro,
2016-05-20,-3.49, -4.69, 21.47, 1.91, 1.71, 7.50, repro,
2016-05-21,-3.58, -5.76, 10.30, 1.89, 1.66, 7.38, repro,
2016-05-22,-2.44, -4.54, 12.73, 1.88, 1.69, 7.45, repro,
2016-05-23,-2.38, -4.65, 10.86, 1.87, 1.65, 7.32, repro,
2016-05-24,-3.26, -7.21, 15.39, 1.87, 1.67, 7.38, repro,
2016-05-25,-1.57, -5.16, 7.58, 1.87, 1.67, 7.40, repro,
2016-05-26,-1.95, -4.00, 18.00, 1.89, 1.67, 7.38, repro,
2016-05-27,-0.53, -3.19, 15.11, 1.98, 1.73, 7.77, repro,
2016-05-28,-0.51, -4.03, 7.42, 1.87, 1.66, 7.35, repro,
2016-05-29,-1.50, -4.93, 8.62, 1.88, 1.66, 7.39, repro,
2016-05-30,-1.89, -4.25, 13.36, 1.86, 1.67, 7.32, repro,
2016-05-31,-0.80, -3.62, 7.39, 1.87, 1.66, 7.35, repro,
2016-06-01,-1.04, -4.39, 9.54, 1.90, 1.67, 7.46, repro,
2016-06-02,-2.01, -3.86, 10.75, 1.87, 1.67, 7.35, repro,
2016-06-03,-0.42, -4.08, 17.03, 1.90, 1.74, 7.61, repro,
2016-06-04,-1.24, -4.75, 20.54, 1.86, 1.66, 7.27, repro,
2016-06-05,-2.29, -5.25, 18.32, 1.89, 1.66, 7.37, repro,
2016-06-06,-0.23, -5.12, 3.05, 1.88, 1.68, 7.42, repro,
2016-06-07,-0.88, -4.50, 14.99, 1.88, 1.69, 7.44, repro,
2016-06-08,-2.75, -3.71, 17.92, 1.87, 1.67, 7.35, repro,
2016-06-09,-1.34, -1.73, 10.62, 1.88, 1.67, 7.37, repro,
2016-06-10,-2.32, -4.23, 21.54, 1.88, 1.66, 7.37, repro,
2016-06-11,-1.19, -4.00, 14.51, 2.15, 1.85, 8.58, repro,
2016-06-12,0.99, -3.70, 3.13, 1.88, 1.68, 7.46, repro,
2016-06-13,0.74, -3.77, 13.58, 1.87, 1.67, 7.35, repro,
2016-06-14,-0.30, -4.32, 15.21, 1.89, 1.71, 7.55, repro,
2016-06-15,-0.84, -5.62, 14.41, 1.87, 1.64, 7.27, repro,
2016-06-16,-1.66, -4.34, 12.41, 1.91, 1.69, 7.39, repro,
2016-06-17,-1.32, -4.00, 17.16, 1.86, 1.64, 7.31, repro,
2016-06-18,-0.41, -3.25, 8.60, 2.30, 2.03, 9.17, repro,
2016-06-19,-1.59, -2.72, 15.97, 1.86, 1.66, 7.34, repro,
2016-06-20,-2.92, -2.91, 22.37, 1.90, 1.64, 7.29, repro,
2016-06-21,-1.55, -3.12, 18.56, 1.92, 1.70, 7.59, repro,
2016-06-22,-1.96, -3.25, 17.77, 1.89, 1.70, 7.44, repro,
2016-06-23,-1.76, -4.75, 13.14, 1.92, 1.67, 7.43, repro,
2016-06-24,-2.31, -5.12, 21.56, 1.92, 1.67, 7.32, repro,
2016-06-25,-1.45, -1.90, 18.19, 1.87, 1.65, 7.27, repro,
2016-06-26,-0.16, -2.81, 19.09, 1.95, 1.68, 7.51, repro,
2016-06-27,-0.81, -2.48, 15.60, 1.88, 1.65, 7.35, repro,
2016-06-28,-1.28, -3.04, 19.23, 1.86, 1.65, 7.27, repro,
2016-06-29,-2.23, -4.08, 8.50, 1.86, 1.63, 7.22, repro,
2016-06-30,-0.97, -4.19, 5.57, 1.86, 1.63, 7.25, repro,
2016-07-01,-0.46, -1.54, 17.69, 1.89, 1.66, 7.36, repro,
2016-07-02,-3.06, -3.23, 18.33, 1.96, 1.66, 7.47, repro,
2016-07-03,-0.74, -2.75, 20.71, 1.98, 1.68, 7.60, repro,
2016-07-04,-1.99, -1.23, 15.08, 1.89, 1.64, 7.35, repro,
2016-07-05,0.29, -4.40, 12.54, 1.85, 1.63, 7.22, repro,
2016-07-06,0.46, -2.43, 8.80, 1.90, 1.68, 7.37, repro,
2016-07-07,-1.22, -3.12, 16.09, 1.87, 1.63, 7.26, repro,
2016-07-08,0.16, -1.70, 7.86, 1.93, 1.67, 7.46, repro,
2016-07-09,-0.35, -0.57, 10.51, 1.88, 1.65, 7.33, repro,
2016-07-10,-1.22, -1.43, 13.23, 1.85, 1.62, 7.18, repro,
2016-07-11,-3.34, -3.71, 9.82, 1.85, 1.62, 7.17, repro,
2016-07-12,-2.44, -2.14, 13.01, 1.91, 1.67, 7.50, repro,
2016-07-13,0.62, -1.35, 6.89, 1.89, 1.64, 7.32, repro,
2016-07-14,-2.20, -1.07, 11.51, 1.91, 1.71, 7.48, repro,
2016-07-15,-0.91, 1.70, 15.95, 1.86, 1.63, 7.22, repro,
2016-07-16,-1.21, 1.80, 1.32, 1.86, 1.64, 7.25, repro,
2016-07-17,-1.45, -0.29, 8.47, 1.89, 1.68, 7.44, repro,
2016-07-18,-1.75, 0.40, 14.32, 1.87, 1.63, 7.24, repro,
2016-07-19,-0.82, 1.36, 8.97, 1.90, 1.67, 7.46, repro,
2016-07-20,-1.12, -0.64, 10.46, 1.91, 1.72, 7.55, repro,
2016-07-21,-2.16, -0.11, 12.80, 1.88, 1.65, 7.34, repro,
2016-07-22,-1.28, -0.22, 20.90, 1.92, 1.74, 7.63, repro,
2016-07-23,1.36, 0.79, 7.97, 1.91, 1.69, 7.47, repro,
2016-07-24,-0.20, -0.68, 17.67, 1.90, 1.69, 7.46, repro,
2016-07-25,-1.08, 1.65, 8.48, 1.90, 1.64, 7.33, repro,
2016-07-26,-2.05, -0.59, 20.22, 1.91, 1.69, 7.40, repro,
2016-07-27,-2.79, 0.19, 12.50, 1.95, 1.71, 7.56, repro,
2016-07-28,-0.78, -0.20, 17.21, 1.87, 1.64, 7.32, repro,
2016-07-29,-1.18, 0.94, 14.23, 1.97, 1.72, 7.75, repro,
2016-07-30,-0.12, 1.31, 22.78, 1.88, 1.64, 7.32, repro,
2016-07-31,-1.22, 3.42, 11.35, 1.86, 1.63, 7.28, repro,
2016-08-01,1.10, 0.62, 10.89, 1.88, 1.63, 7.28, repro,
2016-08-02,0.31, 0.52, 9.64, 1.90, 1.68, 7.50, repro,
2016-08-03,-0.46, 1.99, 5.01, 1.88, 1.69, 7.49, repro,
2016-08-04,0.80, 3.01, 11.71, 1.89, 1.70, 7.62, repro,
2016-08-06,0.55, 0.12, 8.31, 1.86, 1.64, 7.35, repro,
2016-08-07,-0.51, 0.09, 6.63, 1.87, 1.63, 7.32, repro,
2016-08-08,0.12, 1.66, 7.00, 1.85, 1.62, 7.23, repro,
2016-08-09,-1.21, -1.80, 1.70, 1.88, 1.66, 7.44, repro,